TimeCDT,TemperatureF,Dew PointF,Humidity,Sea Level PressureIn,VisibilityMPH,Wind Direction,Wind SpeedMPH,Gust SpeedMPH,PrecipitationIn,Events,Conditions,WindDirDegrees,DateUTC
12:54 AM,53.1,39.9,61,29.70,10.0,SE,15.0,-,N/A,,Overcast,130,2013-04-08 05:54:00
1:54 AM,53.1,41.0,64,29.68,10.0,SE,16.1,21.9,N/A,,Overcast,140,2013-04-08 06:54:00
2:54 AM,51.1,45.0,80,29.68,4.0,South,15.0,-,0.02,Rain,Rain,170,2013-04-08 07:54:00
3:54 AM,50.0,48.0,93,29.65,5.0,SSE,6.9,-,0.12,Rain,Light Rain,150,2013-04-08 08:54:00
4:05 AM,50.0,48.2,94,29.65,4.0,SSE,6.9,-,0.01,Rain,Rain,150,2013-04-08 09:05:00
4:33 AM,48.2,48.2,100,29.66,3.0,SSE,3.5,-,0.07,Rain,Rain,150,2013-04-08 09:33:00
4:42 AM,48.2,48.2,100,29.66,3.0,SE,5.8,-,0.10,Rain,Rain,140,2013-04-08 09:42:00
4:51 AM,48.2,48.2,100,29.66,2.5,SE,3.5,-,0.13,Rain,Rain,140,2013-04-08 09:51:00
4:54 AM,48.9,48.0,97,29.66,2.5,SE,4.6,-,0.13,Rain,Light Rain,140,2013-04-08 09:54:00
5:06 AM,48.2,48.2,100,29.65,2.0,SE,4.6,-,0.06,Rain,Rain,130,2013-04-08 10:06:00
5:28 AM,48.2,48.2,100,29.65,2.5,ENE,5.8,-,0.11,Rain,Rain,70,2013-04-08 10:28:00
5:54 AM,46.9,46.0,97,29.65,2.0,East,5.8,-,0.17,Rain,Light Rain,90,2013-04-08 10:54:00
6:25 AM,46.4,46.4,100,29.64,3.0,East,5.8,-,0.03,Rain,Light Rain,90,2013-04-08 11:25:00
6:35 AM,46.4,44.6,93,29.64,2.5,East,5.8,-,0.03,Rain,Light Rain,80,2013-04-08 11:35:00
6:43 AM,46.4,44.6,93,29.65,3.0,ESE,3.5,-,0.03,,Overcast,110,2013-04-08 11:43:00
6:54 AM,46.9,46.0,97,29.67,3.0,Calm,Calm,-,0.03,,Overcast,0,2013-04-08 11:54:00
7:07 AM,46.4,46.4,100,29.66,2.5,ESE,5.8,-,N/A,,Overcast,110,2013-04-08 12:07:00
7:54 AM,46.9,46.0,97,29.68,2.0,East,4.6,-,N/A,,Overcast,80,2013-04-08 12:54:00
8:54 AM,48.0,46.9,96,29.70,2.5,SSE,4.6,-,N/A,,Overcast,160,2013-04-08 13:54:00
9:15 AM,48.2,48.2,100,29.69,2.0,South,5.8,-,N/A,,Overcast,170,2013-04-08 14:15:00
9:45 AM,51.8,50.0,94,29.69,3.0,SSW,5.8,-,N/A,,Overcast,200,2013-04-08 14:45:00
9:54 AM,53.1,51.1,93,29.70,4.0,SW,5.8,-,N/A,,Mostly Cloudy,220,2013-04-08 14:54:00
10:02 AM,53.6,51.8,94,29.69,5.0,SSW,8.1,-,N/A,,Mostly Cloudy,210,2013-04-08 15:02:00
10:09 AM,55.4,51.8,88,29.69,7.0,SW,8.1,-,N/A,,Partly Cloudy,230,2013-04-08 15:09:00
10:41 AM,60.8,53.6,77,29.70,10.0,SW,11.5,-,N/A,,Mostly Cloudy,230,2013-04-08 15:41:00
10:54 AM,59.0,52.0,78,29.70,10.0,WSW,11.5,-,N/A,,Mostly Cloudy,240,2013-04-08 15:54:00
11:15 AM,62.6,51.8,68,29.71,10.0,West,12.7,-,N/A,,Scattered Clouds,270,2013-04-08 16:15:00
11:54 AM,64.9,51.1,61,29.72,10.0,West,11.5,-,N/A,,Clear,260,2013-04-08 16:54:00
12:54 PM,66.9,51.1,57,29.72,10.0,WSW,10.4,20.7,N/A,,Clear,240,2013-04-08 17:54:00
1:54 PM,69.1,50.0,51,29.72,10.0,West,10.4,-,N/A,,Clear,270,2013-04-08 18:54:00
2:54 PM,69.1,48.0,47,29.71,10.0,West,6.9,-,N/A,,Scattered Clouds,280,2013-04-08 19:54:00
3:54 PM,71.1,46.0,41,29.71,10.0,South,6.9,-,N/A,,Scattered Clouds,190,2013-04-08 20:54:00
4:54 PM,73.0,46.0,38,29.73,10.0,South,5.8,-,N/A,,Scattered Clouds,190,2013-04-08 21:54:00
5:54 PM,66.9,54.0,63,29.75,10.0,NE,12.7,16.1,N/A,,Overcast,40,2013-04-08 22:54:00
6:54 PM,62.1,54.0,75,29.78,9.0,ENE,12.7,-,N/A,,Clear,60,2013-04-08 23:54:00
7:54 PM,57.9,52.0,81,29.81,8.0,NE,6.9,-,N/A,,Clear,40,2013-04-09 00:54:00
8:54 PM,55.0,51.1,86,29.84,8.0,NE,5.8,-,N/A,,Clear,40,2013-04-09 01:54:00
9:54 PM,53.1,48.9,86,29.87,7.0,NE,9.2,-,N/A,,Clear,50,2013-04-09 02:54:00
10:54 PM,50.0,46.0,86,29.88,7.0,NE,5.8,-,N/A,,Clear,50,2013-04-09 03:54:00
11:54 PM,48.9,44.1,83,29.88,7.0,ENE,10.4,-,N/A,,Clear,60,2013-04-09 04:54:00